User: anonymous   Login
Location: Melbourne
(37.8170°S, 144.9670°E)
Time: 17:23:05
(UTC+10:00)
Language:

Explorer 11/Cluster Stage 4 - Orbit

View from above orbital plane
View from above orbital plane
View from above satellite
View from above satellite

Ground track
Ground track

The orbit data is extracted from the following two-line orbital elements,

1 00107U 61013A   15143.52882020  .00000986  00000-0  11705-3 0  9990
2 00107 028.7854 189.7875 0555325 096.2952 016.1708 14.06880253704503
Epoch (UTC): 23 May 2015 12:41:30
Eccentricity: 0.0555325
inclination: 28.7854°
perigee height: 467 km
apogee height: 1272 km
right ascension of ascending node: 189.7875°
argument of perigee: 96.2952°
revolutions per day: 14.06880253
mean anomaly at epoch: 16.1708°
orbit number at epoch: 70450

The dashed part of the orbit path shows where the satellite is in the earth's shadow,  

DLR